UAE202 KJFK-OMDB

Flight info

Callsign UAE202
Flight time N/A
Altitude 31000
Route GREKI DCT JUDDS DCT CAM DCT EBONY N633A RIKAL/M085F320 NATS SOVED/N0485F330 DCT LUTOV DCT MAKUX DCT SOSIM L15 MOTOX DCT RUCAC DCT LESDO DCT ETINO/N0485F350 DCT DEVDI DCT RIPUS DCT RESIA DCT BELOV DCT LATAN DCT SALUN N705 MMA P751 DASUM Y234 FYM M872 ALMOD/N0489F370 M872 BDB Y214 RAPMA DCT KUVSO DCT KATIT DCT PEKEM M628 RIGIL G783 ELUDA/N0501F350 G783 ASPED Q308 KIPOK Q568 IMPED
Aircraft B77W/H-SDE1E2E3FGHIJ2J3J4J5M1RWXY/LB1D1

Departure

Time 2026-05-06 00:00
Airport John F. Kennedy International Airport (KJFK)

Arrival

Time N/A
Airport Dubai International Airport (OMDB)
Time Latitude Longitude Altitude Speed Heading
2026-05-05 23:24 40.64214 -73.77872 28 ft 0 kts 26°
2026-05-05 23:43 40.64206 -73.77877 26 ft 4 kts 28°
2026-05-05 23:44 40.64183 -73.77896 26 ft 4 kts 39°
2026-05-05 23:44 40.64164 -73.77921 25 ft 4 kts 60°
2026-05-05 23:44 40.64157 -73.77947 25 ft 4 kts 105°
2026-05-05 23:44 40.64162 -73.77961 25 ft 0 kts 150°
2026-05-05 23:45 40.64145 -73.77947 27 ft 4 kts 150°
2026-05-05 23:45 40.64127 -73.77933 27 ft 0 kts 150°
2026-05-05 23:50 40.64109 -73.77920 28 ft 8 kts 150°
2026-05-05 23:50 40.64055 -73.77889 28 ft 9 kts 172°
2026-05-05 23:50 40.63985 -73.77866 28 ft 11 kts 152°
2026-05-05 23:50 40.63934 -73.77827 27 ft 2 kts 135°
2026-05-05 23:51 40.63935 -73.77777 27 ft 9 kts 70°
2026-05-05 23:51 40.63967 -73.77701 27 ft 11 kts 60°
2026-05-05 23:51 40.64008 -73.77607 27 ft 12 kts 60°
2026-05-05 23:51 40.64062 -73.77526 27 ft 12 kts 32°
2026-05-05 23:52 40.64080 -73.77445 27 ft 1 kts 109°
2026-05-05 23:52 40.64076 -73.77439 27 ft 0 kts 128°
2026-05-05 23:53 40.64071 -73.77430 27 ft 7 kts 129°
2026-05-05 23:53 40.64027 -73.77351 27 ft 11 kts 112°
2026-05-05 23:53 40.64068 -73.77270 28 ft 11 kts 35°
2026-05-05 23:53 40.64136 -73.77216 30 ft 11 kts 31°
2026-05-05 23:54 40.64204 -73.77162 29 ft 11 kts 30°
2026-05-05 23:54 40.64273 -73.77109 27 ft 11 kts 31°
2026-05-05 23:54 40.64341 -73.77056 27 ft 11 kts 31°
2026-05-05 23:54 40.64412 -73.77008 29 ft 12 kts 19°
2026-05-05 23:55 40.64493 -73.76987 26 ft 12 kts
2026-05-05 23:55 40.64568 -73.76941 25 ft 12 kts 31°
2026-05-05 23:55 40.64641 -73.76884 25 ft 12 kts 31°
2026-05-05 23:55 40.64713 -73.76828 26 ft 12 kts 31°
2026-05-05 23:56 40.64787 -73.76770 30 ft 12 kts 31°
2026-05-05 23:56 40.64862 -73.76712 26 ft 12 kts 31°
2026-05-05 23:56 40.64936 -73.76654 27 ft 12 kts 31°
2026-05-05 23:56 40.65011 -73.76596 29 ft 12 kts 31°
2026-05-05 23:57 40.65079 -73.76543 30 ft 8 kts 31°
2026-05-05 23:57 40.65099 -73.76478 26 ft 8 kts 104°
2026-05-05 23:57 40.65092 -73.76457 27 ft 0 kts 120°
2026-05-05 23:59 40.65089 -73.76451 27 ft 5 kts 120°
2026-05-05 23:59 40.65050 -73.76369 27 ft 12 kts 133°
2026-05-05 23:59 40.65001 -73.76370 27 ft 0 kts 210°
2026-05-05 23:59 40.64996 -73.76374 27 ft 6 kts 211°
2026-05-06 00:00 40.64820 -73.76513 32 ft 68 kts 211°
2026-05-06 00:00 40.64169 -73.77018 26 ft 148 kts 210°
2026-05-06 00:00 40.63128 -73.77845 302 ft 191 kts 209°
2026-05-06 00:00 40.61925 -73.78782 1142 ft 200 kts 210°
2026-05-06 00:01 40.60756 -73.79666 2464 ft 198 kts 212°
2026-05-06 00:01 40.59518 -73.80610 2703 ft 216 kts 213°
2026-05-06 00:01 40.58231 -73.81732 2971 ft 227 kts 229°
2026-05-06 00:01 40.57538 -73.83620 3358 ft 240 kts 258°
2026-05-06 00:02 40.57545 -73.85851 3965 ft 248 kts 275°
2026-05-06 00:02 40.58094 -73.88015 4711 ft 255 kts 295°
2026-05-06 00:02 40.59284 -73.89799 5350 ft 269 kts 318°
2026-05-06 00:02 40.61055 -73.90782 5977 ft 289 kts 344°
2026-05-06 00:03 40.63167 -73.90678 6264 ft 318 kts
2026-05-06 00:03 40.65301 -73.89680 6793 ft 333 kts 20°
2026-05-06 00:03 40.67380 -73.88273 7449 ft 338 kts 24°
2026-05-06 00:03 40.69438 -73.86754 8147 ft 340 kts 25°
2026-05-06 00:04 40.71499 -73.85219 8902 ft 340 kts 25°
2026-05-06 00:04 40.73572 -73.83696 9611 ft 343 kts 24°
2026-05-06 00:04 40.75674 -73.82179 10244 ft 346 kts 24°
2026-05-06 00:04 40.77798 -73.80667 10862 ft 348 kts 24°
2026-05-06 00:05 40.82120 -73.77634 12035 ft 355 kts 24°
2026-05-06 00:05 40.84312 -73.76104 12710 ft 357 kts 23°
2026-05-06 00:05 40.86515 -73.74571 13395 ft 359 kts 23°
2026-05-06 00:06 40.88734 -73.73028 13989 ft 362 kts 23°
2026-05-06 00:06 40.90975 -73.71470 14503 ft 366 kts 23°
2026-05-06 00:06 40.93245 -73.69892 15008 ft 371 kts 23°
2026-05-06 00:06 40.95543 -73.68292 15521 ft 375 kts 24°
2026-05-06 00:07 40.97860 -73.66677 16037 ft 379 kts 24°
2026-05-06 00:07 41.00200 -73.65045 16541 ft 383 kts 24°
2026-05-06 00:07 41.02568 -73.63394 17062 ft 387 kts 25°
2026-05-06 00:07 41.04973 -73.61713 17442 ft 397 kts 25°
2026-05-06 00:08 41.07470 -73.59969 17544 ft 413 kts 25°
2026-05-06 00:08 41.10051 -73.58164 17784 ft 426 kts 25°
2026-05-06 00:08 41.12695 -73.56311 18163 ft 434 kts 25°
2026-05-06 00:08 41.15384 -73.54423 18629 ft 438 kts 25°
2026-05-06 00:09 41.18082 -73.52527 19226 ft 439 kts 25°
2026-05-06 00:09 41.20779 -73.50629 19823 ft 440 kts 25°
2026-05-06 00:09 41.23492 -73.48720 20342 ft 443 kts 25°
2026-05-06 00:09 41.26224 -73.46797 20835 ft 446 kts 25°
2026-05-06 00:10 41.28972 -73.44861 21347 ft 448 kts 25°
2026-05-06 00:10 41.31733 -73.42914 21867 ft 451 kts 25°
2026-05-06 00:10 41.34506 -73.40956 22367 ft 453 kts 25°
2026-05-06 00:10 41.37301 -73.38980 22895 ft 455 kts 25°
2026-05-06 00:11 41.40102 -73.36999 23397 ft 458 kts 25°
2026-05-06 00:11 41.42935 -73.34994 23715 ft 464 kts 25°
2026-05-06 00:11 41.45764 -73.32912 24073 ft 468 kts 29°
2026-05-06 00:11 41.48465 -73.30442 24491 ft 471 kts 34°
2026-05-06 00:12 41.50979 -73.27627 24950 ft 474 kts 41°
2026-05-06 00:12 41.53315 -73.24505 25338 ft 477 kts 43°
2026-05-06 00:12 41.55653 -73.21296 25427 ft 487 kts 43°
2026-05-06 00:12 41.58052 -73.18054 25603 ft 494 kts 42°
2026-05-06 00:13 41.60542 -73.14908 25844 ft 492 kts 34°
2026-05-06 00:13 41.63490 -73.12673 26080 ft 485 kts 15°
2026-05-06 00:13 41.66732 -73.11629 26509 ft 476 kts
2026-05-06 00:13 41.70002 -73.11630 26870 ft 465 kts 348°
2026-05-06 00:14 41.73218 -73.12210 27107 ft 468 kts 347°
2026-05-06 00:14 41.76455 -73.12836 27371 ft 472 kts 347°
2026-05-06 00:14 41.79709 -73.13462 27689 ft 473 kts 347°
2026-05-06 00:14 41.82976 -73.14072 28054 ft 474 kts 347°
2026-05-06 00:15 41.86250 -73.14663 28398 ft 476 kts 347°
2026-05-06 00:15 41.89535 -73.15240 28702 ft 477 kts 347°
2026-05-06 00:15 41.92795 -73.15804 28977 ft 479 kts 347°
2026-05-06 00:15 41.96108 -73.16372 29240 ft 481 kts 347°
2026-05-06 00:16 41.99431 -73.16940 29502 ft 483 kts 348°
2026-05-06 00:16 42.02769 -73.17512 29680 ft 485 kts 348°
2026-05-06 00:16 42.06123 -73.18089 29903 ft 487 kts 348°
2026-05-06 00:16 42.09478 -73.18665 30160 ft 486 kts 348°
2026-05-06 00:17 42.12825 -73.19240 30496 ft 483 kts 348°
2026-05-06 00:17 42.16156 -73.19813 30760 ft 483 kts 347°
2026-05-06 00:17 42.19497 -73.20392 30800 ft 484 kts 348°
2026-05-06 00:18 42.26148 -73.21544 30830 ft 479 kts 348°
2026-05-06 00:18 42.32751 -73.22689 30843 ft 479 kts 348°
2026-05-06 00:19 42.39365 -73.23841 30868 ft 479 kts 347°
2026-05-06 00:19 42.45971 -73.24994 30849 ft 478 kts 347°
2026-05-06 00:20 42.52562 -73.26146 30836 ft 477 kts 347°
2026-05-06 00:20 42.59142 -73.27298 30821 ft 476 kts 347°
2026-05-06 00:21 42.65714 -73.28451 30832 ft 477 kts 347°
2026-05-06 00:21 42.72320 -73.29611 30840 ft 482 kts 347°
2026-05-06 00:22 42.79015 -73.30794 30841 ft 489 kts 346°
2026-05-06 00:22 42.85798 -73.31993 30839 ft 494 kts 346°
2026-05-06 00:23 42.92646 -73.32910 30820 ft 502 kts 358°
2026-05-06 00:23 42.96118 -73.31943 30829 ft 518 kts 15°
2026-05-06 00:23 42.99338 -73.29605 30838 ft 533 kts 32°
2026-05-06 00:23 43.02080 -73.26164 30835 ft 544 kts 46°
2026-05-06 00:24 43.04119 -73.21782 30820 ft 549 kts 62°
2026-05-06 00:24 43.07270 -73.12248 30823 ft 552 kts 63°
2026-05-06 00:25 43.10385 -73.02624 30822 ft 555 kts 63°
2026-05-06 00:25 43.13595 -72.93013 30817 ft 555 kts 62°
2026-05-06 00:26 43.16859 -72.83424 30809 ft 555 kts 62°
2026-05-06 00:26 43.20098 -72.73913 30814 ft 554 kts 62°